Location: Ajisawe
(8.4333°N, 4.3833°E)
Time: 04:17:29
(UTC+00:00)

STARLINK-1146 - Pass Details

Date: 10 October 2020
Orbit: 549 x 550 km, 53.0° (Epoch: 21 October)

Event Time Altitude Azimuth Distance (km) Brightness Sun altitude
Rises 18:51:49 0° 290° (WNW) 2,704 8.3 -21.3°
Reaches altitude 10° 18:55:39 10° 254° (WSW) 1,812 7.3 -22.3°
Maximum altitude 18:56:49 11° 237° (WSW) 1,747 7.0 -22.6°
Drops below altitude 10° 18:57:59 10° 221° (SW) 1,813 6.8 -22.9°
Sets 19:01:51 0° 184° (S) 2,706 7.3 -23.8°
